This is the latest recevied weather packets stored in our database for station/object OE9MNR-10. If no packets are shown the sender has not sent any weather packets the latest 10 day(s).
| Time | Temp. | Humidity | Pressure | Rain* | Wind** | Luminosity | Snow |
|---|---|---|---|---|---|---|---|
| 1787908106 | 27.22° C | 100% | 965 hPa | - | - | - | - |
| 1787907806 | 28.33° C | 100% | 964.7 hPa | - | - | - | - |
| 1787907506 | 29.44° C | 100% | 963.9 hPa | - | - | - | - |
| 1787907206 | 29.44° C | 100% | 962.5 hPa | - | - | - | - |
| 1787906906 | 28.89° C | 100% | 962.2 hPa | - | - | - | - |
| 1787906606 | 28.33° C | 100% | 962.2 hPa | - | - | - | - |
| 1787906306 | 28.33° C | 100% | 962.1 hPa | - | - | - | - |
| 1787906006 | 27.78° C | 100% | 961.9 hPa | - | - | - | - |
| 1787905705 | 27.78° C | 100% | 961.5 hPa | - | - | - | - |
| 1787905406 | 27.22° C | 100% | 961.3 hPa | - | - | - | - |
| 1787904805 | 27.78° C | 100% | 961.4 hPa | - | - | - | - |
| 1787904505 | 27.22° C | 100% | 961.5 hPa | - | - | - | - |
| 1787904205 | 27.22° C | 100% | 961.8 hPa | - | - | - | - |
| 1787903905 | 27.22° C | 100% | 962.2 hPa | - | - | - | - |
| 1787903605 | 26.67° C | 100% | 962.5 hPa | - | - | - | - |
| 1787903305 | 26.67° C | 100% | 962.7 hPa | - | - | - | - |
| 1787903005 | 26.11° C | 100% | 962.8 hPa | - | - | - | - |
| 1787902705 | 26.11° C | 100% | 962.9 hPa | - | - | - | - |
| 1787902405 | 25.56° C | 100% | 963.2 hPa | - | - | - | - |
| 1787902105 | 25.56° C | 100% | 963.1 hPa | - | - | - | - |
| 1787901505 | 25.56° C | 100% | 963.7 hPa | - | - | - | - |
| 1787901205 | 25.56° C | 100% | 963.8 hPa | - | - | - | - |
| 1787900905 | 25.56° C | 100% | 963.9 hPa | - | - | - | - |
| 1787900605 | 25° C | 100% | 963.8 hPa | - | - | - | - |
| 1787900305 | 25° C | 100% | 963.8 hPa | - | - | - | - |
* Rain since midnight (hover to see other rain measurements)
** Current wind speed in m/s (hover to see current wind gust speed)